Date,TemperatureHighF,TemperatureAvgF,TemperatureLowF,DewpointHighF,DewpointAvgF,DewpointLowF,HumidityHigh,HumidityAvg,HumidityLow,PressureMaxIn,PressureMinIn,WindSpeedMaxMPH,WindSpeedAvgMPH,GustSpeedMaxMPH,PrecipitationSumIn
2013-3-1,65,62,58,58,51,48,85,69,58,29.99,29.90,9,1,10,0.00
2013-3-2,66,58,50,50,42,36,77,58,41,30.04,29.95,20,2,20,0.00
2013-3-3,62,54,49,47,42,39,88,65,46,30.16,29.96,18,2,18,0.00
2013-3-4,66,53,41,46,38,32,87,59,29,30.22,30.12,10,1,12,0.00
2013-3-5,74,62,47,58,53,44,95,73,54,30.19,30.09,12,1,14,0.00
2013-3-6,78,64,52,64,52,33,95,67,29,30.10,29.94,18,2,18,0.00
2013-3-7,71,59,47,55,46,36,92,64,38,30.19,30.07,9,1,11,0.00
2013-3-8,74,62,51,54,51,44,92,71,36,30.20,30.11,9,1,10,0.00
2013-3-9,74,64,53,58,54,49,92,69,52,30.19,30.10,11,1,11,0.00
2013-3-10,76,70,66,61,57,52,75,63,51,30.17,30.08,7,2,10,0.00
2013-3-11,77,72,68,63,61,59,76,69,55,30.12,29.96,13,3,15,0.00
2013-3-12,79,74,70,70,66,62,85,77,68,30.01,29.91,19,4,19,0.00
2013-3-13,77,66,57,66,56,44,93,72,42,30.12,29.98,14,2,14,0.00
2013-3-14,71,61,53,53,48,39,90,65,36,30.21,30.09,15,2,16,0.00
2013-3-15,72,62,52,55,51,44,84,67,51,30.25,30.15,10,1,10,0.00
2013-3-16,75,65,53,57,54,51,97,70,46,30.20,30.09,13,1,13,0.00
2013-3-17,76,68,57,62,59,54,92,73,58,30.16,30.04,13,1,14,0.00
2013-3-18,79,72,67,70,66,61,97,81,69,30.08,29.97,20,2,20,0.10
2013-3-19,80,72,66,69,68,65,97,88,62,30.01,29.83,16,1,16,0.08
2013-3-20,80,71,62,70,65,57,100,84,55,29.98,29.81,17,1,17,0.01
2013-3-21,76,66,55,62,55,49,94,71,41,29.96,29.83,12,1,14,0.00
2013-3-22,76,66,51,70,59,50,99,81,58,30.01,29.91,11,2,13,0.01
2013-3-23,83,76,70,75,72,69,98,87,71,30.00,29.81,21,2,21,0.00
2013-3-24,91,79,72,73,71,67,96,78,51,29.90,29.68,23,4,23,0.01
2013-3-25,81,74,65,72,59,38,94,65,33,29.99,29.75,13,2,15,0.02
2013-3-26,70,61,52,44,38,31,58,44,25,30.21,29.99,17,2,17,0.00
2013-3-27,69,57,45,48,42,34,78,58,39,30.25,30.17,10,1,12,0.00
2013-3-28,72,60,50,51,45,32,83,60,29,30.27,30.18,10,1,10,0.00
2013-3-29,76,64,53,54,50,45,82,62,43,30.29,30.21,11,1,11,0.00
2013-3-30,76,68,60,55,53,49,82,59,40,30.27,30.17,9,1,9,0.00
2013-3-31,79,72,67,66,62,55,83,70,59,30.19,30.05,15,3,15,0.00